Falls City, NE

3:20 AM CDT on April 21, 2018 (GMT -0500)
Brenner

Weather History for KFNB - April, 2012

Change the Weather History Date:

Saturday, April 21, 2012

  Actual Average Record
Temperature  
Mean Temperature 53 °F -  
Max Temperature 72 °F 67 °F 89 °F (1956)
Min Temperature 34 °F 42 °F 19 °F (1966)
Degree Days  
Heating Degree Days 12    
Growing Degree Days 3 (Base 50)    
Moisture  
Dew Point 35 °F    
Average Humidity 53    
Maximum Humidity 92    
Minimum Humidity 25    
Precipitation  
Precipitation 0.00 in - - ()
Sea Level Pressure  
Sea Level Pressure 29.99 in    
Wind  
Wind Speed 5 mph (WSW)    
Max Wind Speed 16 mph    
Max Gust Speed 24 mph    
Visibility 10 miles    
Events      
Averages and records for this station are not official NWS values.
T = Trace of Precipitation, MM = Missing Value Source: NWS Daily Summary

Daily Weather History Graph

Daily Weather History Graph

Search for Another Location

Airport or City:

Astronomy

Apr. 21, 2012 Rise Set
Actual Time 6:34 AM CDT 8:07 PM CDT
Civil Twilight 6:06 AM CDT 8:36 PM CDT
Nautical Twilight 5:31 AM CDT 9:10 PM CDT
Astronomical Twilight 4:55 AM CDT 9:47 PM CDT
Moon 6:31 AM CDT 8:49 PM CDT
Length of Visible Light 14h 29m
Length of Day
13h 32m
New Moon, 0% of the Moon is Illuminated
Apr 21
New Moon
Apr 29
First Quarter
May 5
Full
May 12
Last Quarter
May 20
New

Hourly Weather History & Observations

Time (CDT) Temp. Windchill Dew Point Humidity Pressure Visibility Wind Dir Wind Speed Gust Speed Precip Events Conditions
12:53 AM 44.1 °F - 33.1 °F 65% 30.08 in 10.0 mi Calm Calm - N/A   Clear
1:53 AM 39.9 °F - 33.1 °F 77% 30.07 in 10.0 mi Calm Calm - N/A   Clear
2:53 AM 39.0 °F 36.8 °F 33.1 °F 79% 30.05 in 10.0 mi South 3.5 mph - N/A   Clear
3:53 AM 37.0 °F 34.5 °F 32.0 °F 82% 30.04 in 10.0 mi South 3.5 mph - N/A   Clear
4:53 AM 36.0 °F - 32.0 °F 86% 30.04 in 10.0 mi Calm Calm - N/A   Clear
5:53 AM 34.0 °F 29.8 °F 32.0 °F 92% 30.04 in 10.0 mi ESE 4.6 mph - N/A   Clear
6:53 AM 37.9 °F 35.5 °F 33.1 °F 83% 30.04 in 10.0 mi SE 3.5 mph - N/A   Clear
7:53 AM 41.0 °F - 36.0 °F 82% 30.07 in 10.0 mi Calm Calm - N/A   Scattered Clouds
8:53 AM 48.0 °F - 37.0 °F 66% 30.06 in 10.0 mi SSW 5.8 mph - N/A   Mostly Cloudy
9:53 AM 52.0 °F - 36.0 °F 54% 30.04 in 10.0 mi South 9.2 mph - N/A   Mostly Cloudy
10:53 AM 54.0 °F - 35.1 °F 49% 30.02 in 10.0 mi SSW 11.5 mph - 0.00 in   Mostly Cloudy
11:53 AM 59.0 °F - 37.0 °F 44% 29.99 in 10.0 mi SSE 9.2 mph - N/A   Clear
12:53 PM 63.0 °F - 39.0 °F 41% 29.97 in 10.0 mi South 9.2 mph - N/A   Partly Cloudy
1:53 PM 66.9 °F - 39.9 °F 37% 29.95 in 10.0 mi West 9.2 mph 17.3 mph N/A   Clear
2:53 PM 70.0 °F - 41.0 °F 35% 29.93 in 10.0 mi SW 15.0 mph 19.6 mph N/A   Clear
3:53 PM 72.0 °F - 41.0 °F 33% 29.91 in 10.0 mi West 12.7 mph 24.2 mph N/A   Clear
4:53 PM 71.1 °F - 39.9 °F 32% 29.89 in 10.0 mi NW 9.2 mph - N/A   Clear
5:53 PM 70.0 °F - 39.0 °F 32% 29.89 in 10.0 mi NW 6.9 mph - N/A   Mostly Cloudy
6:53 PM 71.1 °F - 37.0 °F 29% 29.89 in 10.0 mi NW 16.1 mph 24.2 mph N/A   Clear
7:53 PM 68.0 °F - 30.9 °F 25% 29.91 in 10.0 mi NNW 9.2 mph 18.4 mph N/A   Clear
8:53 PM 63.0 °F - 32.0 °F 31% 29.94 in 10.0 mi NNW 6.9 mph - N/A   Clear
9:53 PM 55.0 °F - 34.0 °F 45% 29.96 in 10.0 mi WNW 5.8 mph - N/A   Clear
10:53 PM 57.0 °F - 33.1 °F 40% 29.97 in 10.0 mi NW 6.9 mph - N/A   Clear
11:53 PM 55.0 °F - 33.1 °F 43% 29.98 in 10.0 mi NW 6.9 mph - N/A   Clear